Overview Statistics Trail Chart Weather Telemetry Raw packets
 

This is the latest recevied weather packets stored in our database for station/object VE1DX. If no packets are shown the sender has not sent any weather packets the latest 10 day(s).

<< 17 18 19 20 21 22 23 >>
Time Temp. Humidity Pressure Rain* Wind** Luminosity Snow
1788513617 17.78° C 100% 1011.1 hPa 4.06 mm - - -
1788513347 17.78° C 100% 1011.2 hPa 3.3 mm - - -
1788513017 17.78° C 100% 1011.4 hPa 3.05 mm - - -
1788512717 17.78° C 100% 1011.4 hPa 2.79 mm - - -
1788512417 17.78° C 100% 1011.4 hPa 2.54 mm - - -
1788512117 17.78° C 100% 1011.3 hPa 2.29 mm - - -
1788511817 17.78° C 100% 1011.4 hPa 2.03 mm - - -
1788511517 17.78° C 100% 1011.4 hPa 1.52 mm - - -
1788511217 17.78° C 100% 1011.6 hPa 1.52 mm - - -
1788510917 17.78° C 100% 1011.7 hPa 1.52 mm - - -
1788510617 17.78° C 100% 1011.6 hPa 1.52 mm - - -
1788510317 17.78° C 100% 1011.7 hPa 1.27 mm - - -
1788510017 17.78° C 100% 1011.7 hPa 1.02 mm - - -
1788509717 17.78° C 100% 1011.7 hPa 1.02 mm - - -
1788509417 17.78° C 100% 1011.8 hPa 1.27 mm - - -
1788509117 17.78° C 100% 1011.8 hPa 1.27 mm - - -
1788508817 17.78° C 100% 1011.7 hPa 1.02 mm - - -
1788508517 17.78° C 100% 1011.7 hPa 1.02 mm - - -
1788508217 17.78° C 100% 1011.9 hPa 1.27 mm - - -
1788507917 17.78° C 100% 1012.2 hPa 1.27 mm - - -
1788507617 17.78° C 100% 1012.2 hPa 1.02 mm - - -
1788507317 17.78° C 100% 1012.3 hPa 1.02 mm - - -
1788507017 18.33° C 100% 1012.3 hPa 1.02 mm - - -
1788506717 18.33° C 100% 1012.5 hPa 0.76 mm - - -
1788506417 18.33° C 100% 1012.6 hPa 0.76 mm - - -

* Rain latest hour (hover to see other rain measurements)
** Current wind speed in m/s (hover to see current wind gust speed)